Year,Month,Day,Hour,Minute,Value (Times are PST for temperature in C)
2014,07,04,00,00,14.10
2014,07,04,00,01,14.10
2014,07,04,00,02,14.00
2014,07,04,00,03,14.00
2014,07,04,00,04,14.00
2014,07,04,00,05,14.00
2014,07,04,00,06,13.90
2014,07,04,00,07,13.90
2014,07,04,00,08,13.90
2014,07,04,00,09,13.90
2014,07,04,00,10,13.90
2014,07,04,00,11,13.80
2014,07,04,00,12,13.80
2014,07,04,00,13,13.80
2014,07,04,00,14,13.80
2014,07,04,00,15,13.80
2014,07,04,00,16,13.80
2014,07,04,00,17,13.80
2014,07,04,00,18,13.70
2014,07,04,00,19,13.70
2014,07,04,00,20,13.70
2014,07,04,00,21,13.70
2014,07,04,00,22,13.70
2014,07,04,00,23,13.70
2014,07,04,00,24,13.70
2014,07,04,00,25,13.60
2014,07,04,00,26,13.60
2014,07,04,00,27,13.60
2014,07,04,00,28,13.60
2014,07,04,00,29,13.60
2014,07,04,00,30,13.60
2014,07,04,00,31,13.60
2014,07,04,00,32,13.60
2014,07,04,00,33,13.50
2014,07,04,00,34,13.50
2014,07,04,00,35,13.50
2014,07,04,00,36,13.50
2014,07,04,00,37,13.40
2014,07,04,00,38,13.40
2014,07,04,00,39,13.40
2014,07,04,00,40,13.40
2014,07,04,00,41,13.40
2014,07,04,00,42,13.40
2014,07,04,00,43,13.40
2014,07,04,00,44,13.30
2014,07,04,00,45,13.30
2014,07,04,00,46,13.30
2014,07,04,00,47,13.30
2014,07,04,00,48,13.30
2014,07,04,00,49,13.30
2014,07,04,00,50,13.30
2014,07,04,00,51,13.20
2014,07,04,00,52,13.20
2014,07,04,00,53,13.20
2014,07,04,00,54,13.20
2014,07,04,00,55,13.20
2014,07,04,00,56,13.20
2014,07,04,00,57,13.20
2014,07,04,00,58,13.20
2014,07,04,00,59,13.20
2014,07,04,01,00,13.20
2014,07,04,01,01,13.20
2014,07,04,01,02,13.20
2014,07,04,01,03,13.20
2014,07,04,01,04,13.20
2014,07,04,01,05,13.20
2014,07,04,01,06,13.10
2014,07,04,01,07,13.10
2014,07,04,01,08,13.10
2014,07,04,01,09,13.10
2014,07,04,01,10,13.10
2014,07,04,01,11,13.10
2014,07,04,01,12,13.10
2014,07,04,01,13,13.10
2014,07,04,01,14,13.10
2014,07,04,01,15,13.00
2014,07,04,01,16,13.00
2014,07,04,01,17,13.00
2014,07,04,01,18,13.00
2014,07,04,01,19,13.00
2014,07,04,01,20,13.00
2014,07,04,01,21,12.90
2014,07,04,01,22,12.90
2014,07,04,01,23,12.90
2014,07,04,01,24,12.90
2014,07,04,01,25,12.90
2014,07,04,01,26,12.90
2014,07,04,01,27,12.90
2014,07,04,01,28,12.80
2014,07,04,01,29,12.80
2014,07,04,01,30,12.80
2014,07,04,01,31,12.80
2014,07,04,01,32,12.80
2014,07,04,01,33,12.70
2014,07,04,01,34,12.70
2014,07,04,01,35,12.70
2014,07,04,01,36,12.70
2014,07,04,01,37,12.70
2014,07,04,01,38,12.60
2014,07,04,01,39,12.60
2014,07,04,01,40,12.60
2014,07,04,01,41,12.50
2014,07,04,01,42,12.50
2014,07,04,01,43,12.50
2014,07,04,01,44,12.40
2014,07,04,01,45,12.40
2014,07,04,01,46,12.40
2014,07,04,01,47,12.40
2014,07,04,01,48,12.30
2014,07,04,01,49,12.30
2014,07,04,01,50,12.30
2014,07,04,01,51,12.20
2014,07,04,01,52,12.10
2014,07,04,01,53,12.10
2014,07,04,01,54,12.00
2014,07,04,01,55,12.00
2014,07,04,01,56,11.90
2014,07,04,01,57,11.90
2014,07,04,01,58,11.80
2014,07,04,01,59,11.80
2014,07,04,02,00,11.70
2014,07,04,02,01,11.70
2014,07,04,02,02,11.70
2014,07,04,02,03,11.70
2014,07,04,02,04,11.70
2014,07,04,02,05,11.70
2014,07,04,02,06,11.70
2014,07,04,02,07,11.70
2014,07,04,02,08,11.70
2014,07,04,02,09,11.70
2014,07,04,02,10,11.70
2014,07,04,02,11,11.70
2014,07,04,02,12,11.70
2014,07,04,02,13,11.70
2014,07,04,02,14,11.70
2014,07,04,02,15,11.70
2014,07,04,02,16,11.70
2014,07,04,02,17,11.70
2014,07,04,02,18,11.70
2014,07,04,02,19,11.70
2014,07,04,02,20,11.60
2014,07,04,02,21,11.60
2014,07,04,02,22,11.60
2014,07,04,02,23,11.60
2014,07,04,02,24,11.60
2014,07,04,02,25,11.60
2014,07,04,02,26,11.60
2014,07,04,02,27,11.60
2014,07,04,02,28,11.50
2014,07,04,02,29,11.50
2014,07,04,02,30,11.50
2014,07,04,02,31,11.50
2014,07,04,02,32,11.50
2014,07,04,02,33,11.50
2014,07,04,02,34,11.40
2014,07,04,02,35,11.40
2014,07,04,02,36,11.40
2014,07,04,02,37,11.40
2014,07,04,02,38,11.30
2014,07,04,02,39,11.30
2014,07,04,02,40,11.30
2014,07,04,02,41,11.20
2014,07,04,02,42,11.20
2014,07,04,02,43,11.20
2014,07,04,02,44,11.20
2014,07,04,02,45,11.10
2014,07,04,02,46,11.10
2014,07,04,02,47,11.10
2014,07,04,02,48,11.10
2014,07,04,02,49,11.00
2014,07,04,02,50,11.00
2014,07,04,02,51,11.00
2014,07,04,02,52,10.90
2014,07,04,02,53,10.90
2014,07,04,02,54,10.90
2014,07,04,02,55,10.90
2014,07,04,02,56,10.80
2014,07,04,02,57,10.80
2014,07,04,02,58,10.80
2014,07,04,02,59,10.80
2014,07,04,03,00,10.80
2014,07,04,03,01,10.80
2014,07,04,03,02,10.80
2014,07,04,03,03,10.80
2014,07,04,03,04,10.80
2014,07,04,03,05,10.80
2014,07,04,03,06,10.80
2014,07,04,03,07,10.80
2014,07,04,03,08,10.80
2014,07,04,03,09,10.70
2014,07,04,03,10,10.70
2014,07,04,03,11,10.70
2014,07,04,03,12,10.70
2014,07,04,03,13,10.70
2014,07,04,03,14,10.70
2014,07,04,03,15,10.70
2014,07,04,03,16,10.60
2014,07,04,03,17,10.60
2014,07,04,03,18,10.50
2014,07,04,03,19,10.50
2014,07,04,03,20,10.50
2014,07,04,03,21,10.40
2014,07,04,03,22,10.40
2014,07,04,03,23,10.40
2014,07,04,03,24,10.30
2014,07,04,03,25,10.30
2014,07,04,03,26,10.20
2014,07,04,03,27,10.20
2014,07,04,03,28,10.20
2014,07,04,03,29,10.10
2014,07,04,03,30,10.10
2014,07,04,03,31,10.10
2014,07,04,03,32,10.10
2014,07,04,03,33,10.10
2014,07,04,03,34,10.10
2014,07,04,03,35,10.00
2014,07,04,03,36,10.00
2014,07,04,03,37,10.00
2014,07,04,03,38,10.00
2014,07,04,03,39,10.00
2014,07,04,03,40,9.90
2014,07,04,03,41,9.90
2014,07,04,03,42,9.90
2014,07,04,03,43,9.80
2014,07,04,03,44,9.80
2014,07,04,03,45,9.80
2014,07,04,03,46,9.80
2014,07,04,03,47,9.80
2014,07,04,03,48,9.80
2014,07,04,03,49,9.80
2014,07,04,03,50,9.80
2014,07,04,03,51,9.80
2014,07,04,03,52,9.80
2014,07,04,03,53,9.70
2014,07,04,03,54,9.70
2014,07,04,03,55,9.70
2014,07,04,03,56,9.70
2014,07,04,03,57,9.70
2014,07,04,03,58,9.70
2014,07,04,03,59,9.70
2014,07,04,04,00,9.70
2014,07,04,04,01,9.70
2014,07,04,04,02,9.70
2014,07,04,04,03,9.70
2014,07,04,04,04,9.70
2014,07,04,04,05,9.60
2014,07,04,04,06,9.60
2014,07,04,04,07,9.60
2014,07,04,04,08,9.60
2014,07,04,04,09,9.50
2014,07,04,04,10,9.40
2014,07,04,04,11,9.40
2014,07,04,04,12,9.40
2014,07,04,04,13,9.30
2014,07,04,04,14,9.30
2014,07,04,04,15,9.30
2014,07,04,04,16,9.30
2014,07,04,04,17,9.30
2014,07,04,04,18,9.30
2014,07,04,04,19,9.20
2014,07,04,04,20,9.20
2014,07,04,04,21,9.20
2014,07,04,04,22,9.20
2014,07,04,04,23,9.20
2014,07,04,04,24,9.20
2014,07,04,04,25,9.20
2014,07,04,04,26,9.10
2014,07,04,04,27,9.10
2014,07,04,04,28,9.10
2014,07,04,04,29,9.00
2014,07,04,04,30,9.00
2014,07,04,04,31,9.00
2014,07,04,04,32,9.00
2014,07,04,04,33,9.00
2014,07,04,04,34,8.90
2014,07,04,04,35,9.00
2014,07,04,04,36,8.90
2014,07,04,04,37,8.90
2014,07,04,04,38,8.90
2014,07,04,04,39,8.90
2014,07,04,04,40,8.90
2014,07,04,04,41,8.90
2014,07,04,04,42,8.90
2014,07,04,04,43,8.90
2014,07,04,04,44,8.90
2014,07,04,04,45,8.90
2014,07,04,04,46,8.90
2014,07,04,04,47,8.90
2014,07,04,04,48,8.90
2014,07,04,04,49,8.90
2014,07,04,04,50,8.90
2014,07,04,04,51,8.90
2014,07,04,04,52,8.90
2014,07,04,04,53,8.90
2014,07,04,04,54,8.90
2014,07,04,04,55,8.90
2014,07,04,04,56,8.90
2014,07,04,04,57,8.90
2014,07,04,04,58,8.90
2014,07,04,04,59,8.90
2014,07,04,05,00,8.80
2014,07,04,05,01,8.80
2014,07,04,05,02,8.80
2014,07,04,05,03,8.80
2014,07,04,05,04,8.80
2014,07,04,05,05,8.90
2014,07,04,05,06,8.90
2014,07,04,05,07,8.90
2014,07,04,05,08,8.90
2014,07,04,05,09,8.80
2014,07,04,05,10,8.80
2014,07,04,05,11,8.80
2014,07,04,05,12,8.80
2014,07,04,05,13,8.80
2014,07,04,05,14,8.80
2014,07,04,05,15,8.70
2014,07,04,05,16,8.70
2014,07,04,05,17,8.70
2014,07,04,05,18,8.60
2014,07,04,05,19,8.60
2014,07,04,05,20,8.50
2014,07,04,05,21,8.50
2014,07,04,05,22,8.40
2014,07,04,05,23,8.40
2014,07,04,05,24,8.40
2014,07,04,05,25,8.30
2014,07,04,05,26,8.30
2014,07,04,05,27,8.30
2014,07,04,05,28,8.30
2014,07,04,05,29,8.30
2014,07,04,05,30,8.30
2014,07,04,05,31,8.30
2014,07,04,05,32,8.20
2014,07,04,05,33,8.20
2014,07,04,05,34,8.20
2014,07,04,05,35,8.30
2014,07,04,05,36,8.30
2014,07,04,05,37,8.30
2014,07,04,05,38,8.30
2014,07,04,05,39,8.30
2014,07,04,05,40,8.30
2014,07,04,05,41,8.30
2014,07,04,05,42,8.30
2014,07,04,05,43,8.30
2014,07,04,05,44,8.30
2014,07,04,05,45,8.30
2014,07,04,05,46,8.30
2014,07,04,05,47,8.30
2014,07,04,05,48,8.30
2014,07,04,05,49,8.30
2014,07,04,05,50,8.40
2014,07,04,05,51,8.40
2014,07,04,05,52,8.40
2014,07,04,05,53,8.40
2014,07,04,05,54,8.40
2014,07,04,05,55,8.40
2014,07,04,05,56,8.40
2014,07,04,05,57,8.40
2014,07,04,05,58,8.40
2014,07,04,05,59,8.40
2014,07,04,06,00,8.40
2014,07,04,06,01,8.40
2014,07,04,06,02,8.40
2014,07,04,06,03,8.50
2014,07,04,06,04,8.50
2014,07,04,06,05,8.60
2014,07,04,06,06,8.60
2014,07,04,06,07,8.60
2014,07,04,06,08,8.70
2014,07,04,06,09,8.70
2014,07,04,06,10,8.80
2014,07,04,06,11,8.80
2014,07,04,06,12,8.90
2014,07,04,06,13,9.00
2014,07,04,06,14,9.00
2014,07,04,06,15,9.10
2014,07,04,06,16,9.10
2014,07,04,06,17,9.10
2014,07,04,06,18,9.10
2014,07,04,06,19,9.10
2014,07,04,06,20,9.10
2014,07,04,06,21,9.10
2014,07,04,06,22,9.10
2014,07,04,06,23,9.10
2014,07,04,06,24,9.10
2014,07,04,06,25,9.10
2014,07,04,06,26,9.20
2014,07,04,06,27,9.20
2014,07,04,06,28,9.20
2014,07,04,06,29,9.30
2014,07,04,06,30,9.30
2014,07,04,06,31,9.40
2014,07,04,06,32,9.40
2014,07,04,06,33,9.50
2014,07,04,06,34,9.50
2014,07,04,06,35,9.60
2014,07,04,06,36,9.60
2014,07,04,06,37,9.60
2014,07,04,06,38,9.70
2014,07,04,06,39,9.70
2014,07,04,06,40,9.70
2014,07,04,06,41,9.80
2014,07,04,06,42,9.80
2014,07,04,06,43,9.80
2014,07,04,06,44,9.90
2014,07,04,06,45,9.90
2014,07,04,06,46,9.90
2014,07,04,06,47,10.00
2014,07,04,06,48,10.10
2014,07,04,06,49,10.20
2014,07,04,06,50,10.30
2014,07,04,06,51,10.40
2014,07,04,06,52,10.50
2014,07,04,06,53,10.50
2014,07,04,06,54,10.60
2014,07,04,06,55,10.60
2014,07,04,06,56,10.60
2014,07,04,06,57,10.70
2014,07,04,06,58,10.70
2014,07,04,06,59,10.70
2014,07,04,07,00,10.70
2014,07,04,07,01,10.80
2014,07,04,07,02,10.80
2014,07,04,07,03,10.90
2014,07,04,07,04,10.90
2014,07,04,07,05,11.00
2014,07,04,07,06,11.00
2014,07,04,07,07,11.10
2014,07,04,07,08,11.10
2014,07,04,07,09,11.20
2014,07,04,07,10,11.20
2014,07,04,07,11,11.20
2014,07,04,07,12,11.30
2014,07,04,07,13,11.30
2014,07,04,07,14,11.40
2014,07,04,07,15,11.40
2014,07,04,07,16,11.40
2014,07,04,07,17,11.50
2014,07,04,07,18,11.60
2014,07,04,07,19,11.60
2014,07,04,07,20,11.60
2014,07,04,07,21,11.70
2014,07,04,07,22,11.80
2014,07,04,07,23,11.80
2014,07,04,07,24,11.90
2014,07,04,07,25,12.00
2014,07,04,07,26,12.20
2014,07,04,07,27,12.30
2014,07,04,07,28,12.40
2014,07,04,07,29,12.60
2014,07,04,07,30,12.70
2014,07,04,07,31,12.80
2014,07,04,07,32,12.90
2014,07,04,07,33,13.00
2014,07,04,07,34,13.10
2014,07,04,07,35,13.20
2014,07,04,07,36,13.30
2014,07,04,07,37,13.50
2014,07,04,07,38,13.60
2014,07,04,07,39,13.70
2014,07,04,07,40,13.80
2014,07,04,07,41,13.80
2014,07,04,07,42,13.80
2014,07,04,07,43,13.80
2014,07,04,07,44,13.80
2014,07,04,07,45,13.90
2014,07,04,07,46,13.90
2014,07,04,07,47,13.90
2014,07,04,07,48,13.90
2014,07,04,07,49,13.90
2014,07,04,07,50,14.00
2014,07,04,07,51,14.00
2014,07,04,07,52,14.00
2014,07,04,07,53,14.00
2014,07,04,07,54,14.10
2014,07,04,07,55,14.10
2014,07,04,07,56,14.10
2014,07,04,07,57,14.10
2014,07,04,07,58,14.10
2014,07,04,07,59,14.10
2014,07,04,08,00,14.10
2014,07,04,08,01,14.10
2014,07,04,08,02,14.10
2014,07,04,08,03,14.10
2014,07,04,08,04,14.10
2014,07,04,08,05,14.10
2014,07,04,08,06,14.10
2014,07,04,08,07,14.10
2014,07,04,08,08,14.10
2014,07,04,08,09,14.10
2014,07,04,08,10,14.10
2014,07,04,08,11,14.10
2014,07,04,08,12,14.20
2014,07,04,08,13,14.20
2014,07,04,08,14,14.20
2014,07,04,08,15,14.30
2014,07,04,08,16,14.30
2014,07,04,08,17,14.40
2014,07,04,08,18,14.50
2014,07,04,08,19,14.60
2014,07,04,08,20,14.60
2014,07,04,08,21,14.70
2014,07,04,08,22,14.80
2014,07,04,08,23,14.90
2014,07,04,08,24,15.00
2014,07,04,08,25,15.00
2014,07,04,08,26,15.10
2014,07,04,08,27,15.20
2014,07,04,08,28,15.20
2014,07,04,08,29,15.20
2014,07,04,08,30,15.20
2014,07,04,08,31,15.30
2014,07,04,08,32,15.30
2014,07,04,08,33,15.30
2014,07,04,08,34,15.30
2014,07,04,08,35,15.30
2014,07,04,08,36,15.30
2014,07,04,08,37,15.30
2014,07,04,08,38,15.30
2014,07,04,08,39,15.30
2014,07,04,08,40,15.30
2014,07,04,08,41,15.30
2014,07,04,08,42,15.30
2014,07,04,08,43,15.40
2014,07,04,08,44,15.40
2014,07,04,08,45,15.50
2014,07,04,08,46,15.60
2014,07,04,08,47,15.60
2014,07,04,08,48,15.70
2014,07,04,08,49,15.80
2014,07,04,08,50,16.00
2014,07,04,08,51,16.10
2014,07,04,08,52,16.10
2014,07,04,08,53,16.30
2014,07,04,08,54,16.30
2014,07,04,08,55,16.30
2014,07,04,08,56,16.30
2014,07,04,08,57,16.30
2014,07,04,08,58,16.30
2014,07,04,08,59,16.20
2014,07,04,09,00,16.20
2014,07,04,09,01,16.20
2014,07,04,09,02,16.20
2014,07,04,09,03,16.30
2014,07,04,09,04,16.30
2014,07,04,09,05,16.40
2014,07,04,09,06,16.40
2014,07,04,09,07,16.50
2014,07,04,09,08,16.60
2014,07,04,09,09,16.70
2014,07,04,09,10,16.80
2014,07,04,09,11,16.80
2014,07,04,09,12,16.90
2014,07,04,09,13,16.90
2014,07,04,09,14,17.00
2014,07,04,09,15,17.10
2014,07,04,09,16,17.20
2014,07,04,09,17,17.30
2014,07,04,09,18,17.40
2014,07,04,09,19,17.50
2014,07,04,09,20,17.60
2014,07,04,09,21,17.60
2014,07,04,09,22,17.70
2014,07,04,09,23,17.70
2014,07,04,09,24,17.70
2014,07,04,09,25,17.60
2014,07,04,09,26,17.60
2014,07,04,09,27,17.50
2014,07,04,09,28,17.50
2014,07,04,09,29,17.50
2014,07,04,09,30,17.40
2014,07,04,09,31,17.50
2014,07,04,09,32,17.50
2014,07,04,09,33,17.60
2014,07,04,09,34,17.60
2014,07,04,09,35,17.70
2014,07,04,09,36,17.70
2014,07,04,09,37,17.80
2014,07,04,09,38,17.80
2014,07,04,09,39,17.80
2014,07,04,09,40,17.70
2014,07,04,09,41,17.80
2014,07,04,09,42,17.80
2014,07,04,09,43,17.80
2014,07,04,09,44,17.80
2014,07,04,09,45,17.80
2014,07,04,09,46,17.90
2014,07,04,09,47,18.00
2014,07,04,09,48,18.00
2014,07,04,09,49,18.10
2014,07,04,09,50,18.20
2014,07,04,09,51,18.20
2014,07,04,09,52,18.30
2014,07,04,09,53,18.30
2014,07,04,09,54,18.30
2014,07,04,09,55,18.20
2014,07,04,09,56,18.20
2014,07,04,09,57,18.20
2014,07,04,09,58,18.20
2014,07,04,09,59,18.10
2014,07,04,10,00,18.10
2014,07,04,10,01,18.10
2014,07,04,10,02,18.20
2014,07,04,10,03,18.20
2014,07,04,10,04,18.30
2014,07,04,10,05,18.30
2014,07,04,10,06,18.40
2014,07,04,10,07,18.50
2014,07,04,10,08,18.60
2014,07,04,10,09,18.70
2014,07,04,10,10,18.70
2014,07,04,10,11,18.60
2014,07,04,10,12,18.50
2014,07,04,10,13,18.40
2014,07,04,10,14,18.40
2014,07,04,10,15,18.30
2014,07,04,10,16,18.30
2014,07,04,10,17,18.40
2014,07,04,10,18,18.40
2014,07,04,10,19,18.40
2014,07,04,10,20,18.40
2014,07,04,10,21,18.40
2014,07,04,10,22,18.50
2014,07,04,10,23,18.50
2014,07,04,10,24,18.60
2014,07,04,10,25,18.70
2014,07,04,10,26,18.70
2014,07,04,10,27,18.80
2014,07,04,10,28,18.90
2014,07,04,10,29,18.90
2014,07,04,10,30,18.90
2014,07,04,10,31,18.80
2014,07,04,10,32,18.80
2014,07,04,10,33,18.90
2014,07,04,10,34,19.00
2014,07,04,10,35,19.00
2014,07,04,10,36,19.10
2014,07,04,10,37,19.20
2014,07,04,10,38,19.20
2014,07,04,10,39,19.20
2014,07,04,10,40,19.20
2014,07,04,10,41,19.20
2014,07,04,10,42,19.20
2014,07,04,10,43,19.20
2014,07,04,10,44,19.20
2014,07,04,10,45,19.20
2014,07,04,10,46,19.20
2014,07,04,10,47,19.10
2014,07,04,10,48,19.20
2014,07,04,10,49,19.10
2014,07,04,10,50,19.10
2014,07,04,10,51,19.10
2014,07,04,10,52,19.10
2014,07,04,10,53,19.10
2014,07,04,10,54,19.20
2014,07,04,10,55,19.20
2014,07,04,10,56,19.20
2014,07,04,10,57,19.30
2014,07,04,10,58,19.30
2014,07,04,10,59,19.40
2014,07,04,11,00,19.40
2014,07,04,11,01,19.40
2014,07,04,11,02,19.40
2014,07,04,11,03,19.50
2014,07,04,11,04,19.50
2014,07,04,11,05,19.50
2014,07,04,11,06,19.50
2014,07,04,11,07,19.50
2014,07,04,11,08,19.60
2014,07,04,11,09,19.60
2014,07,04,11,10,19.60
2014,07,04,11,11,19.70
2014,07,04,11,12,19.60
2014,07,04,11,13,19.60
2014,07,04,11,14,19.50
2014,07,04,11,15,19.50
2014,07,04,11,16,19.50
2014,07,04,11,17,19.60
2014,07,04,11,18,19.50
2014,07,04,11,19,19.50
2014,07,04,11,20,19.50
2014,07,04,11,21,19.50
2014,07,04,11,22,19.60
2014,07,04,11,23,19.80
2014,07,04,11,24,19.90
2014,07,04,11,25,20.00
2014,07,04,11,26,20.00
2014,07,04,11,27,20.00
2014,07,04,11,28,20.00
2014,07,04,11,29,20.00
2014,07,04,11,30,20.10
2014,07,04,11,31,20.10
2014,07,04,11,32,20.20
2014,07,04,11,33,20.10
2014,07,04,11,34,20.00
2014,07,04,11,35,19.90
2014,07,04,11,36,19.80
2014,07,04,11,37,19.80
2014,07,04,11,38,19.80
2014,07,04,11,39,19.90
2014,07,04,11,40,19.90
2014,07,04,11,41,19.90
2014,07,04,11,42,19.90
2014,07,04,11,43,19.90
2014,07,04,11,44,19.90
2014,07,04,11,45,19.90
2014,07,04,11,46,19.80
2014,07,04,11,47,19.80
2014,07,04,11,48,19.90
2014,07,04,11,49,19.90
2014,07,04,11,50,19.90
2014,07,04,11,51,20.00
2014,07,04,11,52,20.10
2014,07,04,11,53,20.10
2014,07,04,11,54,20.20
2014,07,04,11,55,20.30
2014,07,04,11,56,20.40
2014,07,04,11,57,20.40
2014,07,04,11,58,20.40
2014,07,04,11,59,20.50
2014,07,04,12,00,20.50
2014,07,04,12,01,20.50
2014,07,04,12,02,20.50
2014,07,04,12,03,20.50
2014,07,04,12,04,20.50
2014,07,04,12,05,20.60
2014,07,04,12,06,20.60
2014,07,04,12,07,20.60
2014,07,04,12,08,20.60
2014,07,04,12,09,20.50
2014,07,04,12,10,20.50
2014,07,04,12,11,20.50
2014,07,04,12,12,20.60
2014,07,04,12,13,20.70
2014,07,04,12,14,20.80
2014,07,04,12,15,20.90
2014,07,04,12,16,21.00
2014,07,04,12,17,21.10
2014,07,04,12,18,21.10
2014,07,04,12,19,21.20
2014,07,04,12,20,21.10
2014,07,04,12,21,20.90
2014,07,04,12,22,20.80
2014,07,04,12,23,20.80
2014,07,04,12,24,20.80
2014,07,04,12,25,20.80
2014,07,04,12,26,20.70
2014,07,04,12,27,20.50
2014,07,04,12,28,20.40
2014,07,04,12,29,20.30
2014,07,04,12,30,20.30
2014,07,04,12,31,20.30
2014,07,04,12,32,20.30
2014,07,04,12,33,20.30
2014,07,04,12,34,20.40
2014,07,04,12,35,20.40
2014,07,04,12,36,20.40
2014,07,04,12,37,20.40
2014,07,04,12,38,20.50
2014,07,04,12,39,20.60
2014,07,04,12,40,20.60
2014,07,04,12,41,20.60
2014,07,04,12,42,20.60
2014,07,04,12,43,20.70
2014,07,04,12,44,20.80
2014,07,04,12,45,20.80
2014,07,04,12,46,20.80
2014,07,04,12,47,20.80
2014,07,04,12,48,20.90
2014,07,04,12,49,20.90
2014,07,04,12,50,20.90
2014,07,04,12,51,20.90
2014,07,04,12,52,20.90
2014,07,04,12,53,20.90
2014,07,04,12,54,20.90
2014,07,04,12,55,20.90
2014,07,04,12,56,20.90
2014,07,04,12,57,21.00
2014,07,04,12,58,21.10
2014,07,04,12,59,21.20
2014,07,04,13,00,21.20
2014,07,04,13,01,21.10
2014,07,04,13,02,21.10
2014,07,04,13,03,21.10
2014,07,04,13,04,21.10
2014,07,04,13,05,21.10
2014,07,04,13,06,21.10
2014,07,04,13,07,21.00
2014,07,04,13,08,20.90
2014,07,04,13,09,20.80
2014,07,04,13,10,20.70
2014,07,04,13,11,20.60
2014,07,04,13,12,20.50
2014,07,04,13,13,20.50
2014,07,04,13,14,20.50
2014,07,04,13,15,20.50
2014,07,04,13,16,20.50
2014,07,04,13,17,20.50
2014,07,04,13,18,20.50
2014,07,04,13,19,20.60
2014,07,04,13,20,20.50
2014,07,04,13,21,20.50
2014,07,04,13,22,20.40
2014,07,04,13,23,20.50
2014,07,04,13,24,20.50
2014,07,04,13,25,20.60
2014,07,04,13,26,20.70
2014,07,04,13,27,20.80
2014,07,04,13,28,20.80
2014,07,04,13,29,20.90
2014,07,04,13,30,20.80
2014,07,04,13,31,20.80
2014,07,04,13,32,20.70
2014,07,04,13,33,20.70
2014,07,04,13,34,20.70
2014,07,04,13,35,20.70
2014,07,04,13,36,20.70
2014,07,04,13,37,20.80
2014,07,04,13,38,20.90
2014,07,04,13,39,20.90
2014,07,04,13,40,20.90
2014,07,04,13,41,20.90
2014,07,04,13,42,20.90
2014,07,04,13,43,20.90
2014,07,04,13,44,20.90
2014,07,04,13,45,20.90
2014,07,04,13,46,21.00
2014,07,04,13,47,21.00
2014,07,04,13,48,21.00
2014,07,04,13,49,20.90
2014,07,04,13,50,20.90
2014,07,04,13,51,20.90
2014,07,04,13,52,20.90
2014,07,04,13,53,21.00
2014,07,04,13,54,21.10
2014,07,04,13,55,21.10
2014,07,04,13,56,21.00
2014,07,04,13,57,21.00
2014,07,04,13,58,21.00
2014,07,04,13,59,21.00
2014,07,04,14,00,21.10
2014,07,04,14,01,21.10
2014,07,04,14,02,21.10
2014,07,04,14,03,21.10
2014,07,04,14,04,21.10
2014,07,04,14,05,21.00
2014,07,04,14,06,21.00
2014,07,04,14,07,20.90
2014,07,04,14,08,20.90
2014,07,04,14,09,20.90
2014,07,04,14,10,21.00
2014,07,04,14,11,21.00
2014,07,04,14,12,21.00
2014,07,04,14,13,21.10
2014,07,04,14,14,21.00
2014,07,04,14,15,21.00
2014,07,04,14,16,21.00
2014,07,04,14,17,21.10
2014,07,04,14,18,21.20
2014,07,04,14,19,21.20
2014,07,04,14,20,21.20
2014,07,04,14,21,21.20
2014,07,04,14,22,21.20
2014,07,04,14,23,21.30
2014,07,04,14,24,21.40
2014,07,04,14,25,21.40
2014,07,04,14,26,21.40
2014,07,04,14,27,21.30
2014,07,04,14,28,21.30
2014,07,04,14,29,21.30
2014,07,04,14,30,21.40
2014,07,04,14,31,21.30
2014,07,04,14,32,21.30
2014,07,04,14,33,21.30
2014,07,04,14,34,21.30
2014,07,04,14,35,21.20
2014,07,04,14,36,21.20
2014,07,04,14,37,21.30
2014,07,04,14,38,21.20
2014,07,04,14,39,21.00
2014,07,04,14,40,21.00
2014,07,04,14,41,21.00
2014,07,04,14,42,20.90
2014,07,04,14,43,20.80
2014,07,04,14,44,20.70
2014,07,04,14,45,20.60
2014,07,04,14,46,20.40
2014,07,04,14,47,20.20
2014,07,04,14,48,20.20
2014,07,04,14,49,20.10
2014,07,04,14,50,20.10
2014,07,04,14,51,20.10
2014,07,04,14,52,20.00
2014,07,04,14,53,20.00
2014,07,04,14,54,19.90
2014,07,04,14,55,19.90
2014,07,04,14,56,19.90
2014,07,04,14,57,19.90
2014,07,04,14,58,19.80
2014,07,04,14,59,19.70
2014,07,04,15,00,19.70
2014,07,04,15,01,19.70
2014,07,04,15,02,19.70
2014,07,04,15,03,19.70
2014,07,04,15,04,19.70
2014,07,04,15,05,19.70
2014,07,04,15,06,19.70
2014,07,04,15,07,19.70
2014,07,04,15,08,19.70
2014,07,04,15,09,19.70
2014,07,04,15,10,19.60
2014,07,04,15,11,19.60
2014,07,04,15,12,19.50
2014,07,04,15,13,19.50
2014,07,04,15,14,19.40
2014,07,04,15,15,19.40
2014,07,04,15,16,19.40
2014,07,04,15,17,19.40
2014,07,04,15,18,19.50
2014,07,04,15,19,19.50
2014,07,04,15,20,19.50
2014,07,04,15,21,19.60
2014,07,04,15,22,19.60
2014,07,04,15,23,19.60
2014,07,04,15,24,19.60
2014,07,04,15,25,19.60
2014,07,04,15,26,19.50
2014,07,04,15,27,19.50
2014,07,04,15,28,19.50
2014,07,04,15,29,19.40
2014,07,04,15,30,19.40
2014,07,04,15,31,19.40
2014,07,04,15,32,19.40
2014,07,04,15,33,19.40
2014,07,04,15,34,19.40
2014,07,04,15,35,19.40
2014,07,04,15,36,19.40
2014,07,04,15,37,19.40
2014,07,04,15,38,19.40
2014,07,04,15,39,19.40
2014,07,04,15,40,19.30
2014,07,04,15,41,19.30
2014,07,04,15,42,19.30
2014,07,04,15,43,19.30
2014,07,04,15,44,19.30
2014,07,04,15,45,19.30
2014,07,04,15,46,19.20
2014,07,04,15,47,19.20
2014,07,04,15,48,19.20
2014,07,04,15,49,19.20
2014,07,04,15,50,19.20
2014,07,04,15,51,19.10
2014,07,04,15,52,19.10
2014,07,04,15,53,19.00
2014,07,04,15,54,18.90
2014,07,04,15,55,18.90
2014,07,04,15,56,18.90
2014,07,04,15,57,18.80
2014,07,04,15,58,18.80
2014,07,04,15,59,18.70
2014,07,04,16,00,18.70
2014,07,04,16,01,18.70
2014,07,04,16,02,18.60
2014,07,04,16,03,18.60
2014,07,04,16,04,18.60
2014,07,04,16,05,18.60
2014,07,04,16,06,18.60
2014,07,04,16,07,18.60
2014,07,04,16,08,18.60
2014,07,04,16,09,18.60
2014,07,04,16,10,18.60
2014,07,04,16,11,18.60
2014,07,04,16,12,18.60
2014,07,04,16,13,18.60
2014,07,04,16,14,18.50
2014,07,04,16,15,18.50
2014,07,04,16,16,18.50
2014,07,04,16,17,18.50
2014,07,04,16,18,18.50
2014,07,04,16,19,18.50
2014,07,04,16,20,18.50
2014,07,04,16,21,18.50
2014,07,04,16,22,18.50
2014,07,04,16,23,18.50
2014,07,04,16,24,18.50
2014,07,04,16,25,18.50
2014,07,04,16,26,18.50
2014,07,04,16,27,18.50
2014,07,04,16,28,18.50
2014,07,04,16,29,18.40
2014,07,04,16,30,18.40
2014,07,04,16,31,18.40
2014,07,04,16,32,18.40
2014,07,04,16,33,18.40
2014,07,04,16,34,18.40
2014,07,04,16,35,18.40
2014,07,04,16,36,18.40
2014,07,04,16,37,18.40
2014,07,04,16,38,18.40
2014,07,04,16,39,18.40
2014,07,04,16,40,18.40
2014,07,04,16,41,18.30
2014,07,04,16,42,18.30
2014,07,04,16,43,18.30
2014,07,04,16,44,18.30
2014,07,04,16,45,18.20
2014,07,04,16,46,18.20
2014,07,04,16,47,18.10
2014,07,04,16,48,18.10
2014,07,04,16,49,18.10
2014,07,04,16,50,18.10
2014,07,04,16,51,18.10
2014,07,04,16,52,18.00
2014,07,04,16,53,18.00
2014,07,04,16,54,18.00
2014,07,04,16,55,18.00
2014,07,04,16,56,17.90
2014,07,04,16,57,17.90
2014,07,04,16,58,17.90
2014,07,04,16,59,17.90
2014,07,04,17,00,17.90
2014,07,04,17,01,17.90
2014,07,04,17,02,17.90
2014,07,04,17,03,17.90
2014,07,04,17,04,17.90
2014,07,04,17,05,17.90
2014,07,04,17,06,17.80
2014,07,04,17,07,17.90
2014,07,04,17,08,17.80
2014,07,04,17,09,17.80
2014,07,04,17,10,17.80
2014,07,04,17,11,17.80
2014,07,04,17,12,17.80
2014,07,04,17,13,17.80
2014,07,04,17,14,17.80
2014,07,04,17,15,17.70
2014,07,04,17,16,17.70
2014,07,04,17,17,17.70
2014,07,04,17,18,17.70
2014,07,04,17,19,17.70
2014,07,04,17,20,17.70
2014,07,04,17,21,17.60
2014,07,04,17,22,17.60
2014,07,04,17,23,17.60
2014,07,04,17,24,17.60
2014,07,04,17,25,17.60
2014,07,04,17,26,17.60
2014,07,04,17,27,17.60